When you browse on this site, cookies collect data to enhance your experience and personalize the content and advertising you see.
Visit our Privacy Policy to learn more. By continuing to use the site, you agree to this use of cookies and data.

Hourly Weather Middlesbrough

Today, 4 July, Saturday

Time Temperature Precipitation Wind Pressure Humidity
00:00 +16°C° 0.1 mm 3 mps 753 mmHg 95%
01:00 +16°C° 0.3 mm 3 mps 753 mmHg 96%
02:00 +16°C° 0.3 mm 2 mps 752 mmHg 96%
03:00 +15°C° 0.3 mm 2 mps 752 mmHg 97%
04:00 +16°C° 1.5 mm 2 mps 752 mmHg 97%
05:00 +16°C° 1.5 mm 2 mps 752 mmHg 97%
06:00 +16°C° 1.5 mm 2 mps 752 mmHg 98%
07:00 +16°C° 0.6 mm 2 mps 752 mmHg 97%
08:00 +16°C° 0.6 mm 3 mps 752 mmHg 96%
09:00 +16°C° 0.6 mm 3 mps 752 mmHg 96%
10:00 +17°C° 0.2 mm 3 mps 752 mmHg 94%
11:00 +18°C° 0.2 mm 3 mps 752 mmHg 91%
12:00 +18°C° 0.2 mm 4 mps 752 mmHg 89%
13:00 +18°C° 0.2 mm 4 mps 753 mmHg 90%
14:00 +17°C° 0.2 mm 4 mps 753 mmHg 91%
15:00 +17°C° 0.2 mm 4 mps 753 mmHg 91%
16:00 +17°C° 0 mm 4 mps 753 mmHg 91%
17:00 +16°C° 0 mm 5 mps 753 mmHg 91%
18:00 +16°C° 0 mm 5 mps 753 mmHg 91%
19:00 +16°C° 0 mm 5 mps 753 mmHg 91%
20:00 +15°C° 0 mm 5 mps 752 mmHg 91%
21:00 +15°C° 0 mm 5 mps 752 mmHg 91%
22:00 +15°C° 0 mm 5 mps 752 mmHg 91%
23:00 +16°C° 0 mm 6 mps 751 mmHg 91%

Tomorrow, 5 July, Sunday

Time Temperature Precipitation Wind Pressure Humidity
00:00 +16°C° 0 mm 7 mps 750 mmHg 90%
01:00 +16°C° 0.1 mm 8 mps 749 mmHg 89%
02:00 +16°C° 0.1 mm 9 mps 748 mmHg 88%
03:00 +16°C° 0.1 mm 10 mps 747 mmHg 87%
04:00 +16°C° 0.2 mm 10 mps 747 mmHg 85%
05:00 +14°C° 0.2 mm 11 mps 747 mmHg 83%
06:00 +13°C° 0.2 mm 11 mps 747 mmHg 81%
07:00 +14°C° 0 mm 11 mps 748 mmHg 76%
08:00 +14°C° 0 mm 11 mps 748 mmHg 72%
09:00 +14°C° 0 mm 11 mps 749 mmHg 68%
10:00 +14°C° 0 mm 11 mps 749 mmHg 66%
11:00 +16°C° 0 mm 11 mps 750 mmHg 64%
12:00 +16°C° 0 mm 11 mps 750 mmHg 62%
13:00 +16°C° 0.1 mm 11 mps 750 mmHg 63%
14:00 +16°C° 0.1 mm 11 mps 750 mmHg 63%
15:00 +16°C° 0.1 mm 11 mps 750 mmHg 64%
16:00 +14°C° 0.3 mm 10 mps 750 mmHg 69%
17:00 +13°C° 0.3 mm 10 mps 750 mmHg 73%
18:00 +12°C° 0.3 mm 9 mps 750 mmHg 77%
19:00 +11°C° 0.1 mm 8 mps 750 mmHg 80%
20:00 +11°C° 0.1 mm 7 mps 751 mmHg 83%
21:00 +10°C° 0.1 mm 6 mps 751 mmHg 85%
22:00 +10°C° 0 mm 6 mps 751 mmHg 87%
23:00 +9°C° 0 mm 6 mps 751 mmHg 88%

Day after tomorrow, 6 July, Monday

Time Temperature Precipitation Wind Pressure Humidity
00:00 +9°C° 0 mm 6 mps 751 mmHg 90%
01:00 +9°C° 0 mm 7 mps 752 mmHg 89%
02:00 +9°C° 0 mm 7 mps 752 mmHg 87%
03:00 +7°C° 0 mm 8 mps 753 mmHg 86%
04:00 +9°C° 0.1 mm 8 mps 754 mmHg 87%
05:00 +10°C° 0.1 mm 7 mps 754 mmHg 87%
06:00 +10°C° 0.1 mm 7 mps 755 mmHg 87%
07:00 +11°C° 0.1 mm 7 mps 756 mmHg 82%
08:00 +14°C° 0.1 mm 7 mps 757 mmHg 77%
09:00 +15°C° 0.1 mm 7 mps 757 mmHg 72%
10:00 +15°C° 0.1 mm 6 mps 758 mmHg 70%
11:00 +16°C° 0.1 mm 6 mps 759 mmHg 68%
12:00 +16°C° 0.1 mm 6 mps 760 mmHg 66%
13:00 +15°C° 0.2 mm 5 mps 761 mmHg 70%
14:00 +14°C° 0.2 mm 4 mps 761 mmHg 73%
15:00 +13°C° 0.2 mm 3 mps 762 mmHg 76%
16:00 +14°C° 0 mm 2 mps 763 mmHg 77%
17:00 +14°C° 0 mm 2 mps 763 mmHg 78%
18:00 +13°C° 0 mm 1 mps 763 mmHg 78%
19:00 +13°C° 0 mm 2 mps 764 mmHg 80%
20:00 +11°C° 0 mm 3 mps 764 mmHg 82%
21:00 +11°C° 0 mm 4 mps 764 mmHg 84%
22:00 +10°C° 0 mm 4 mps 764 mmHg 84%
23:00 +8°C° 0 mm 5 mps 764 mmHg 84%

7 July, Tuesday

Time Temperature Precipitation Wind Pressure Humidity
00:00 +7°C° 0 mm 5 mps 765 mmHg 83%
01:00 +7°C° 0 mm 5 mps 764 mmHg 85%
02:00 +6°C° 0 mm 5 mps 764 mmHg 87%
03:00 +6°C° 0 mm 5 mps 764 mmHg 89%
04:00 +7°C° 0 mm 5 mps 764 mmHg 87%
05:00 +8°C° 0 mm 6 mps 764 mmHg 85%
06:00 +9°C° 0 mm 6 mps 764 mmHg 83%
07:00 +11°C° 0 mm 6 mps 764 mmHg 78%
08:00 +13°C° 0 mm 5 mps 764 mmHg 74%
09:00 +14°C° 0 mm 5 mps 764 mmHg 69%
10:00 +15°C° 0.1 mm 5 mps 764 mmHg 69%
11:00 +15°C° 0.1 mm 4 mps 764 mmHg 68%
12:00 +15°C° 0.1 mm 4 mps 764 mmHg 67%
13:00 +17°C° 0.1 mm 4 mps 764 mmHg 67%
14:00 +17°C° 0.1 mm 4 mps 764 mmHg 67%
15:00 +17°C° 0.1 mm 4 mps 764 mmHg 67%
16:00 +17°C° 0.1 mm 4 mps 764 mmHg 69%
17:00 +15°C° 0.1 mm 4 mps 764 mmHg 71%
18:00 +15°C° 0.1 mm 4 mps 764 mmHg 74%
19:00 +14°C° 0 mm 4 mps 764 mmHg 77%
20:00 +12°C° 0 mm 3 mps 764 mmHg 80%
21:00 +11°C° 0 mm 3 mps 763 mmHg 83%
22:00 +11°C° 0 mm 3 mps 763 mmHg 84%
23:00 +11°C° 0 mm 3 mps 763 mmHg 85%

8 July, Wednesday

Time Temperature Precipitation Wind Pressure Humidity
00:00 +11°C° 0 mm 3 mps 762 mmHg 86%
01:00 +11°C° 0.7 mm 4 mps 762 mmHg 88%
02:00 +11°C° 0.7 mm 4 mps 761 mmHg 90%
03:00 +9°C° 0.7 mm 5 mps 760 mmHg 92%
04:00 +10°C° 0.5 mm 5 mps 760 mmHg 93%
05:00 +12°C° 0.5 mm 5 mps 759 mmHg 94%
06:00 +13°C° 0.5 mm 6 mps 758 mmHg 95%
07:00 +14°C° 0.1 mm 6 mps 758 mmHg 94%
08:00 +15°C° 0.1 mm 7 mps 758 mmHg 93%
09:00 +16°C° 0.1 mm 8 mps 757 mmHg 92%
10:00 +16°C° 0 mm 8 mps 757 mmHg 91%
11:00 +16°C° 0 mm 8 mps 757 mmHg 90%
12:00 +16°C° 0 mm 9 mps 757 mmHg 89%
13:00 +16°C° 0.1 mm 8 mps 757 mmHg 89%
14:00 +16°C° 0.1 mm 8 mps 756 mmHg 89%
15:00 +17°C° 0.1 mm 8 mps 756 mmHg 88%
16:00 +17°C° 0 mm 8 mps 756 mmHg 87%
17:00 +17°C° 0 mm 8 mps 756 mmHg 85%
18:00 +17°C° 0 mm 8 mps 756 mmHg 84%
19:00 +16°C° 0 mm 7 mps 756 mmHg 84%
20:00 +15°C° 0 mm 7 mps 757 mmHg 85%
21:00 +12°C° 0 mm 7 mps 757 mmHg 85%
22:00 +11°C° 0 mm 6 mps 758 mmHg 87%
23:00 +10°C° 0 mm 6 mps 759 mmHg 88%

9 July, Thursday

Time Temperature Precipitation Wind Pressure Humidity
00:00 +9°C° 0 mm 5 mps 759 mmHg 90%
01:00 +10°C° 0 mm 4 mps 760 mmHg 90%
02:00 +10°C° 0 mm 4 mps 760 mmHg 89%
03:00 +10°C° 0 mm 3 mps 761 mmHg 89%
04:00 +10°C° 0 mm 3 mps 761 mmHg 88%
05:00 +12°C° 0 mm 2 mps 761 mmHg 86%
06:00 +12°C° 0 mm 2 mps 762 mmHg 85%
07:00 +13°C° 0 mm 2 mps 762 mmHg 80%
08:00 +14°C° 0 mm 2 mps 762 mmHg 74%
09:00 +15°C° 0 mm 2 mps 762 mmHg 69%
10:00 +16°C° 0 mm 2 mps 762 mmHg 71%
11:00 +16°C° 0 mm 2 mps 762 mmHg 73%
12:00 +16°C° 0 mm 3 mps 762 mmHg 74%
13:00 +16°C° 0.1 mm 3 mps 761 mmHg 74%
14:00 +15°C° 0.1 mm 4 mps 761 mmHg 74%
15:00 +15°C° 0.1 mm 4 mps 760 mmHg 74%
16:00 +14°C° 0.4 mm 4 mps 760 mmHg 80%
17:00 +13°C° 0.4 mm 5 mps 759 mmHg 86%
18:00 +12°C° 0.4 mm 5 mps 759 mmHg 92%
19:00 +12°C° 1.4 mm 5 mps 758 mmHg 93%
20:00 +11°C° 1.4 mm 4 mps 758 mmHg 95%
21:00 +11°C° 1.4 mm 4 mps 758 mmHg 97%
22:00 +10°C° 1.3 mm 5 mps 757 mmHg 96%
23:00 +10°C° 1.3 mm 5 mps 757 mmHg 96%
Show more